Zurück zum Katalog

STARLINK-6047

AktivKommunikationVLEO
NORAD 56460·PAYLOAD·🇺🇸 United States

Gestartet May 10, 2023 von Vandenberg Space Force Base

Loading…

Nächste Überflüge (nächste 24 Stunden)

TLE

AktuellSource: CelesTrak SupGP

Epoche: Sep 14, 2026, 22:34 UTC

1 56460C 23064N   26257.94076389 -.00042389  00000+0 -35528-2 0  2573
2 56460  70.0029  27.2302 0003004 276.3820 148.4968 14.98346851    12

Verfolge STARLINK-6047 in Echtzeit mit AllMySat

Download on the App Store